K3TE Weather Reports


time (UTC)temp
C
wind
direction
speed
KPH
gust
KPH
rain 1hr
cm
rain 24hr
cm
rain mn
cm
humidity
%
barometer
mb
20260504081611 5 0 0.0 0.0 0.00 0.00 0.00 64 1015.0
20260504070105 6 0 0.0 0.0 0.00 0.00 0.00 63 1014.9
20260504060108 6 0 0.0 0.0 0.00 0.00 0.00 61 1014.8
20260504050108 6 0 0.0 0.0 0.00 0.00 0.00 60 1014.9
20260504044557 6 0 0.0 0.0 0.00 0.00 0.00 60 1014.9
20260504043103 6 0 0.0 0.0 0.00 0.00 0.00 59 1015.0
20260504041603 6 0 0.0 0.0 0.00 0.00 0.00 58 1014.9
20260504040113 6 0 0.0 0.0 0.00 0.00 0.00 57 1014.7
20260504034613 7 0 0.0 0.0 0.00 0.00 0.00 57 1014.4
20260504033103 7 0 0.0 0.0 0.00 0.00 0.00 56 1014.3
20260504031622 7 0 0.0 0.0 0.00 0.00 0.00 56 1014.3
20260504030115 7 0 0.0 0.0 0.00 0.00 0.00 55 1014.2
20260504024603 7 0 0.0 0.0 0.00 0.00 0.00 54 1014.2
20260504023058 7 0 0.0 0.0 0.00 0.00 0.00 54 1014.2
20260504021610 7 0 0.0 0.0 0.00 0.00 0.00 54 1014.3
20260504020055 8 0 0.0 0.0 0.00 0.00 0.00 52 1014.4
20260504014556 8 0 0.0 0.0 0.00 0.00 0.00 51 1014.2
20260504013100 8 0 0.0 0.0 0.00 0.00 0.00 49 1014.3
20260504011558 8 0 0.0 0.0 0.00 0.00 0.00 49 1014.1
20260504010100 9 0 0.0 0.0 0.00 0.00 0.00 48 1014.1
20260504004601 10 0 0.0 0.0 0.00 0.00 0.00 47 1014.0
20260504003058 10 0 0.0 0.0 0.00 0.00 0.00 46 1013.6
20260504001558 10 0 0.0 0.0 0.00 0.00 0.00 44 1013.4
20260504000138 11 0 0.0 4.8 0.00 0.00 0.00 43 1013.3
20260503234604 11 0 0.0 4.8 0.00 0.00 0.00 43 1013.3
20260503233058 12 0 1.6 6.4 0.00 0.00 0.00 40 1013.2
20260503231559 12 0 0.0 3.2 0.00 0.00 0.00 44 1013.0
20260503230100 12 0 1.6 4.8 0.00 0.00 0.00 41 1012.9
20260503224601 12 185 3.2 9.7 0.00 0.00 0.00 38 1013.0
20260503223058 12 264 1.6 9.7 0.00 0.00 0.00 39 1012.9
20260503221603 13 271 1.6 8.0 0.00 0.00 0.00 38 1012.9
20260503214558 13 287 1.6 9.7 0.00 0.00 0.00 36 1012.8
20260503213057 13 258 0.0 12.9 0.00 0.00 0.00 37 1012.7
20260503211604 13 257 1.6 8.0 0.00 0.00 0.00 38 1012.5
20260503210058 13 289 4.8 17.7 0.00 0.00 0.00 35 1012.5
20260503204559 13 279 3.2 12.9 0.00 0.00 0.00 33 1012.5
20260503203110 13 278 6.4 20.9 0.00 0.00 0.00 35 1012.6
20260503201601 13 274 6.4 12.9 0.00 0.00 0.00 32 1012.6
20260503200101 13 278 6.4 16.1 0.00 0.00 0.00 32 1012.8
20260503194608 13 241 1.6 14.5 0.00 0.00 0.00 36 1013.0
20260503193109 12 140 6.4 24.1 0.00 0.00 0.00 38 1013.3
20260503191559 13 242 3.2 30.6 0.00 0.00 0.00 34 1013.4
20260503190059 13 237 4.8 11.3 0.00 0.00 0.00 34 1013.6
20260503184621 12 274 6.4 12.9 0.00 0.00 0.00 36 1013.8
20260503183103 12 79 3.2 19.3 0.00 0.00 0.00 38 1013.9
20260503181559 12 257 4.8 24.1 0.00 0.00 0.00 39 1014.1
20260503180059 11 310 4.8 17.7 0.00 0.00 0.00 40 1014.0
20260503174602 11 247 6.4 20.9 0.00 0.00 0.00 41 1014.1
20260503173100 11 281 3.2 16.1 0.00 0.00 0.00 40 1014.1
20260503171613 10 258 4.8 22.5 0.00 0.00 0.00 42 1014.4
20260503170107 10 293 3.2 14.5 0.00 0.00 0.00 41 1014.2